sat.trackr.live / text

‹ back to catalog

BRITE-CA1 (TORONTO)

NORAD 40020 · 2014-033L

PAYLOAD ACTIVE UNKNOWN

§ Identity

Operator
Country
CA
Launch date
2014-06-19
Launch site
DLS
Launch vehicle
Mass (kg)
RCS (m²)
0.10

Purposes: science, tech_demo

External: N2YO · Heavens-Above · Gunter

§ Orbital elements

Epoch: 2026-09-19T14:40:59.215872Z

Period
97.77 min
Inclination
97.9862°
Eccentricity
0.0077788
Mean motion
14.72817661 rev/d
Perigee alt
597.4 km
Apogee alt
706.8 km
Semi-major
7,030.2 km
B*
7.0281e-5
RAAN
29.8689°
Arg perigee
335.5571°
Mean anomaly
24.1956°
Rev number
65,611

§ Raw data

BRITE-CA1 (TORONTO)1 40020U 14033L   26262.61179648  .00000416  00000+0  70281-4 0  99992 40020  97.9862  29.8689 0077788 335.5571  24.1956 14.72817661656116

JSON: /api/v1/satellites/40020 · /tle

For live sub-satellite position, see the globe view (requires WebGL).

§ Visibility from observer

Set your observer location to see the next 7 days of passes ≥ 10°. The values pass through the URL so the page stays shareable.

No JS? Fill the form by hand. The geolocation button needs JavaScript.

§ Radio — SatNOGS DB

ModeDescriptionDownlinkUplink
FM Downlink 2.234 GHz

1 transmitter · refreshed weekly from db.satnogs.org